This is the latest recevied weather packets stored in our database for station/object IQ5KG. If no packets are shown the sender has not sent any weather packets the latest 10 day(s).
| Time | Temp. | Humidity | Pressure | Rain* | Wind** | Luminosity | Snow |
|---|---|---|---|---|---|---|---|
| 1777963699 | 12.22° C | 99% | 1013.5 hPa | 0.25 mm | - | - | - |
| 1777962798 | 12.22° C | 99% | 1014 hPa | 0.51 mm | - | - | - |
| 1777961897 | 12.22° C | 99% | 1013.8 hPa | 1.78 mm | - | - | - |
| 1777960998 | 12.22° C | 99% | 1014 hPa | 3.81 mm | - | - | - |
| 1777960098 | 11.67° C | 99% | 1013.8 hPa | 4.83 mm | - | - | - |
| 1777959197 | 11.67° C | 99% | 1013.9 hPa | 6.6 mm | - | - | - |
| 1777958296 | 11.67° C | 99% | 1014.1 hPa | 10.41 mm | - | - | - |
| 1777957398 | 11.67° C | 99% | 1013.8 hPa | 12.95 mm | - | - | - |
| 1777956497 | 12.22° C | 99% | 1013.4 hPa | 12.95 mm | - | - | - |
| 1777955597 | 12.22° C | 98% | 1013.7 hPa | 10.92 mm | - | - | - |
| 1777954696 | 12.22° C | 98% | 1013.7 hPa | 5.59 mm | - | - | - |
| 1777953797 | 12.22° C | 98% | 1013.7 hPa | 1.27 mm | - | - | - |
| 1777952896 | 12.22° C | 98% | 1013.9 hPa | 1.27 mm | - | - | - |
| 1777951996 | 12.22° C | 98% | 1014.2 hPa | 2.03 mm | - | - | - |
| 1777951097 | 12.22° C | 98% | 1014.2 hPa | 2.29 mm | - | - | - |
| 1777950195 | 12.22° C | 98% | 1014.4 hPa | 2.79 mm | - | - | - |
| 1777949295 | 12.78° C | 98% | 1014.7 hPa | 2.29 mm | - | - | - |
| 1777948395 | 12.78° C | 97% | 1014.7 hPa | 3.3 mm | - | - | - |
| 1777947495 | 12.78° C | 97% | 1015.1 hPa | 3.81 mm | - | - | - |
| 1777946596 | 12.78° C | 97% | 1015.1 hPa | 4.83 mm | - | - | - |
| 1777945694 | 12.78° C | 96% | 1015.4 hPa | 4.57 mm | - | - | - |
| 1777944795 | 12.78° C | 95% | 1015.4 hPa | 3.56 mm | - | - | - |
| 1777943896 | 12.78° C | 94% | 1015.6 hPa | 3.56 mm | - | - | - |
| 1777942995 | 13.33° C | 93% | 1015.7 hPa | 2.29 mm | - | - | - |
| 1777942096 | 13.33° C | 91% | 1016 hPa | 1.78 mm | - | - | - |
* Rain latest hour (hover to see other rain measurements)
** Current wind speed in m/s (hover to see current wind gust speed)